User: anonymous   Login
Location: Sandbanks Provincial Park
(47.6073°N, 57.6428°W)
Time: 11:09:08
(UTC-03:-30)
Language:

Cosmos 2034 Rocket - Orbit

View from above orbital plane
View from above orbital plane
View from above satellite
View from above satellite

Ground track
Ground track

The orbit data is extracted from the following two-line orbital elements,

1 20150U 89059B   16343.87125169  .00000042  00000-0  27777-4 0  9995
2 20150  82.9412 235.2656 0030262  93.4061 314.7673 13.75631948374227
Epoch (UTC): 08 December 2016 20:54:36
Eccentricity: 0.0030262
inclination: 82.9412°
perigee height: 957 km
apogee height: 1001 km
right ascension of ascending node: 235.2656°
argument of perigee: 93.4061°
revolutions per day: 13.75631948
mean anomaly at epoch: 314.7673°
orbit number at epoch: 37422

The dashed part of the orbit path shows where the satellite is in the earth's shadow,  

DLR